User: anonymous   Login
Location: Unspecified
(0.0000°N, 0.0000°E)
Time: 08:10:12
(UTC+00:00)
Language:

Landsat 7 - Orbit

View from above orbital plane
View from above orbital plane
View from above satellite
View from above satellite

Ground track
Ground track

The orbit data is extracted from the following two-line orbital elements,

1 25682U 99020A   16338.76093395 -.00000194  00000-0 -33130-4 0  9996
2 25682  98.1972  46.7027 0000667  72.8383 287.2905 14.57114421938134
Epoch (UTC): 03 December 2016 18:15:44
Eccentricity: 0.0000667
inclination: 98.1972°
perigee height: 702 km
apogee height: 703 km
right ascension of ascending node: 46.7027°
argument of perigee: 72.8383°
revolutions per day: 14.57114421
mean anomaly at epoch: 287.2905°
orbit number at epoch: 93813

The dashed part of the orbit path shows where the satellite is in the earth's shadow,  

DLR